Regional Weather Roundup
Issued by NWS

Home | Current Version | Previous Version | Graphics & Text | Print | Product List | Glossary On
Versions: 1 2 3 4 5 6 7 8 9 10 11 12 13 14 15 16 17 18 19 20 21 22 23 24 25 26 27 28 29 30 31 32 33 34 35 36 37 38 39 40 41 42 43 44 45 46 47 48 49 50
000
ASUS43 KLMK 230702
RWRKY
KENTUCKY REGIONAL WEATHER ROUNDUP
NATIONAL WEATHER SERVICE LOUISVILLE KY
300 AM EDT MON OCT 23 2017

NOTE "FAIR" INDICATES FEW OR NO CLOUDS BELOW 12,000 FEET
WITH NO SIGNIFICANT WEATHER AND/OR OBSTRUCTIONS TO VISIBILITY.

KYZ001>023-026-027-061>063-070>075-230800-
WESTERN AND SOUTH CENTRAL KENTUCKY

CITY           SKY/WX    TMP DP  RH WIND       PRES   REMARKS
PADUCAH        CLOUDY    56  52  86 NW8       29.89F
HENDERSON      RAIN      66  65  96 SE10      29.84F
OWENSBORO      RAIN      66  64  93 S9        29.86S
HOPKINSVILLE   RAIN      64  64 100 SW10      29.88S FOG
BOWLING GREEN  LGT RAIN  71  62  73 SE12      29.88F
GLASGOW        NOT AVBL
$$

KYZ024-025-028>034-038-045-046-053-230800-
NORTH CENTRAL KENTUCKY

CITY           SKY/WX    TMP DP  RH WIND       PRES   REMARKS
LOUISVILLE/SDF CLOUDY    68  56  65 E7        29.92F
LOUISVILLE/LOU CLOUDY    68  57  68 E8        29.93F
FORT KNOX      CLOUDY    68  59  73 SE10      29.90F
$$

KYZ035>037-039>044-047>052-055>060-089>105-230800-
NORTHEAST KENTUCKY

CITY           SKY/WX    TMP DP  RH WIND       PRES   REMARKS
LEXINGTON      CLOUDY    66  54  65 SE8       29.98F
COVINGTON      CLOUDY    65  53  65 SE13      29.97F
FRANKFORT      CLOUDY    67  53  61 SE8       29.96F
$$

KYZ054-064>069-076>088-106>120-230800-
SOUTHEAST KENTUCKY

CITY           SKY/WX    TMP DP  RH WIND       PRES   REMARKS
JACKSON        CLOUDY    66  53  63 SE6       30.04F
LONDON         CLOUDY    67  56  67 SE6       30.01F
SOMERSET       NOT AVBL
MIDDLESBORO    CLOUDY    64  58  80 CALM      30.05F
MONTICELLO     PTSUNNY   68  58  70 VRB6      29.99F
$$





USA.gov is the U.S. government's official web portal to all federal, state and local government web resources and services.